Location: Cornet
(50.6266°N, 3.2689°E)
Time: 13:47:15
(UTC+00:00)

Daily predictions for brighter satellites

Satellite Brightness Start Highest point End
(mag) Time Altitude Azimuth Time Altitude Azimuth Time Altitude Azimuth
Ariane Rocket 3.3 20:34:15 10° S 20:39:20 72° WSW 20:44:27 10° NNW
PSLV R/B 4.3 20:36:49 10° N 20:40:58 72° WNW 20:45:08 10° SSW
CZ-4B R/B 1.2 20:42:16 10° N 20:45:10 77° WNW 20:48:03 10° SSW
USA 234 4.1 20:41:30 10° ENE 20:47:49 52° N 20:54:08 10° WNW
ATLAS 2AS CENTAUR R/B 4.4 20:42:27 10° WNW 20:48:00 26° WSW 20:53:19 10° SSW
ARIANE 5 R/B 3.7 20:44:50 10° SE 20:48:47 33° ENE 20:52:44 10° N
Terra 2.4 20:44:39 10° SE 20:49:11 45° ENE 20:53:43 10° N
SPOT 3 Rocket 3.7 20:45:43 10° SSE 20:50:56 85° WSW 20:56:13 10° NNW
Cosmos 2278 4.4 20:45:59 10° NNW 20:51:29 45° NE 20:56:57 10° SE
RESURS DK-1 3.7 20:47:58 10° NW 20:51:44 34° WSW 20:55:30 10° S
SPOT 5 2.7 20:47:35 10° SSE 20:51:52 64° ENE 20:56:10 10° N
USA 276 1.9 20:49:50 10° W 20:52:51 78° S 20:55:53 10° E
FALCON 9 DEB 3.0 20:50:51 10° WNW 20:54:08 85° NNE 20:57:24 10° ESE
Cosmos 1455 4.1 20:50:52 10° NNW 20:54:11 28° W 20:57:29 10° SSW
Cosmos 1726 Rocket 3.9 20:52:38 10° N 20:56:53 51° ENE 21:01:06 10° SSE
IRAS Rocket 4.3 20:56:00 10° NNE 21:01:38 85° ESE 21:07:11 10° SSW
Cosmos 2074 Rocket 4.3 20:56:59 10° NNW 21:03:14 69° W 21:09:23 10° S
Cosmos 1331 Rocket 4.0 20:58:09 10° SSW 21:03:27 81° ESE 21:08:47 10° NNE
Cosmos 2082 Rocket 2.7 20:59:16 10° S 21:04:36 42° ESE 21:09:56 10° NE
Helios 1A Rocket 2.9 21:05:08 10° SSE 21:09:13 86° ENE 21:13:22 10° NNW
Spot 2 Rocket 3.6 21:04:33 10° SSE 21:09:39 87° WSW 21:14:49 10° NNW
Cosmos 1328 3.9 21:05:54 10° S 21:09:50 58° E 21:13:46 10° NNE
Cosmos 2084 Rocket 4.0 21:06:26 10° NW 21:10:10 44° SW 21:13:53 11° SSE
Cosmos 2360 Rocket 4.1 21:07:34 10° NNW 21:11:53 21° NE 21:16:11 10° E
Nadezhda 1 Rocket 3.9 21:09:10 10° S 21:15:14 81° E 21:21:20 10° NNE
X-37B 2.8 21:24:03 10° SW 21:24:39 10° SSW 21:25:15 10° SSW
ERS-1 Rocket 3.2 21:22:15 10° S 21:27:16 72° WSW 21:32:19 10° NNW
Cosmos 1892 3.3 21:26:26 14° SSE 21:29:21 40° E 21:32:55 10° NNE
Cosmos 2228 4.4 21:30:31 10° NNW 21:34:22 35° W 21:38:13 10° SSW
Cosmos 1302 Rocket 3.9 21:30:22 10° SSW 21:35:33 76° ESE 21:40:46 10° NNE
Cosmos 192 4.3 21:33:54 10° SSW 21:38:48 89° WNW 21:43:44 10° NNE
Cosmos 968 Rocket 3.9 21:36:52 10° NNW 21:41:59 59° WSW 21:46:30 13° S
Cosmos 1892 Rocket 3.5 21:38:11 10° S 21:42:35 86° E 21:46:58 10° N
ASTRO F (AKARI) 4.5 21:40:19 17° SSE 21:42:58 90° N 21:46:27 10° NNW
Cosmos 1697 Rocket 4.1 21:39:33 10° NW 21:44:22 30° WSW 21:49:11 10° SSW
Cosmos 1980 Rocket 2.7 21:39:48 10° NW 21:45:21 55° WSW 21:50:07 14° S
Cosmos 2219 Rocket 4.3 21:43:31 10° N 21:47:35 20° NE 21:51:38 10° E
SL-16 R/B 2.7 21:42:38 10° NNW 21:48:13 54° NE 21:52:57 14° SE
Cosmos 2058 Rocket 3.1 21:45:19 10° NNW 21:49:46 81° W 21:53:20 16° S
Cosmos 1408 2.3 21:48:44 14° S 21:51:36 88° E 21:55:05 10° N
Cosmos 1626 Rocket 4.2 21:50:06 18° SSE 21:52:52 40° E 21:56:57 10° NNE
SL-8 Rocket 4.0 21:46:38 10° N 21:52:54 84° E 21:58:01 16° S
CZ-2C R/B 3.9 21:49:05 10° N 21:53:37 72° WNW 21:58:05 10° SSW
USA 267 4.0 21:48:43 10° ENE 21:54:14 28° SE 21:59:31 11° S
ATLAS 5 CENTAUR R/B 1.5 21:50:53 10° SSW 21:54:26 44° SE 21:58:27 10° NE
SJ 16-02 2.3 21:56:14 10° N 22:00:24 38° ENE 22:03:35 16° ESE
SL-4 R/B 3.6 22:04:44 14° ESE 22:04:44 14° ESE 22:05:36 10° E
In-Cosmos 22 Rocket 4.1 21:59:04 14° S 22:03:48 71° E 22:09:11 10° NNE
COSMOS 2406 3.8 21:59:14 10° SW 22:04:56 60° NW 22:10:38 10° NNE
Cosmos 1825 2.1 22:07:59 22° S 22:10:18 66° E 22:14:02 10° NNE
Cosmos 1833 Rocket 4.3 22:05:18 10° WSW 22:10:29 37° NW 22:15:42 10° NNE
Cosmos 2366 rocket 4.1 22:06:54 10° N 22:13:17 84° W 22:18:15 18° S
Cosmos 1869 3.2 22:12:09 10° NNW 22:16:04 82° W 22:18:25 23° S
Cosmos 2218 Rocket 4.2 22:13:19 10° NNW 22:19:45 77° W 22:24:43 18° S
Cosmos 2322 Rocket 2.4 22:16:39 10° NNW 22:22:20 68° ENE 22:26:28 19° SE
GP-B 3.4 22:18:42 10° N 22:23:07 64° W 22:26:27 17° SSW
Meteor 1-27 4.4 22:17:53 10° NNW 22:23:25 70° W 22:27:28 19° S
ARIANE 5 R/B 3.9 22:21:46 13° SSW 22:25:13 33° W 22:29:14 10° NNW
Terra 3.4 22:23:06 10° SSW 22:27:07 27° W 22:31:10 10° NW
SAR-Lupe-4 3.5 22:23:45 10° NNE 22:27:22 85° WNW 22:29:35 22° SSW
USA 276 2.7 22:25:38 10° W 22:28:24 33° SSW 22:28:42 32° S
FALCON 9 DEB 4.3 22:27:23 10° W 22:30:07 25° SW 22:30:31 24° SSW
USA 234 3.5 22:23:56 10° ESE 22:30:29 75° NNE 22:37:02 10° WNW
BREEZE-M DEB (TANK) 3.4 22:33:11 10° W 22:36:11 73° S 22:46:59 10° ESE
Cosmos 1633 2.3 22:39:00 31° S 22:40:30 75° E 22:43:58 10° NNE
Cosmos 1992 Rocket 4.3 22:37:55 10° SSW 22:43:08 68° WNW 22:48:23 10° NNE
Cosmos 2333 Rocket 3.1 22:37:37 10° NNW 22:43:11 45° NE 22:48:05 13° ESE
Okean 1-7 Rocket 4.1 22:40:57 16° SSW 22:44:24 57° WNW 22:48:53 10° N
Cosmos 1758 Rocket 3.6 22:42:24 27° S 22:44:43 68° E 22:49:07 10° NNE
ASTEX 1 4.3 22:42:07 10° N 22:46:55 46° WNW 22:51:10 13° SSW
Cosmos 2082 Rocket 3.4 22:43:19 10° WSW 22:48:43 42° NW 22:54:08 10° NNE
Cosmos 1606 2.7 22:48:47 10° N 22:52:40 79° E 22:54:21 32° SSE
Cosmos-2242 3.0 22:48:47 10° NNW 22:53:02 78° W 22:55:10 29° S
Cosmos 1812 Rocket 3.8 22:49:21 10° NNW 22:53:47 63° W 22:56:09 26° S
Cosmos 2360 Rocket 2.2 22:51:06 10° NNW 22:56:50 80° ENE 23:00:31 23° SE
ISS -1.2 23:00:48 10° E 23:00:48 10° E 23:00:50 10° E
ADEOS Rocket 3.6 22:53:14 21° SSE 22:58:36 80° ENE 23:06:25 10° NNW
Cosmos 1340 Rocket 3.6 22:58:42 27° SE 23:00:03 36° E 23:03:44 10° NNE
Gbstr 26 Del rocket 3.6 22:59:00 28° S 23:00:32 38° SE 23:05:08 10° ENE
Cosmos 1821 Rocket 4.1 23:01:17 10° NNW 23:07:28 68° W 23:11:22 23° S
Cosmos 1602 Rocket 4.0 23:05:35 21° SSW 23:08:19 55° WNW 23:12:35 10° N
BREEZE-M DEB (TANK) 4.2 23:12:25 20° ESE 23:12:25 20° ESE 23:15:03 10° E
SL-27 R/B 4.1 23:13:18 19° ESE 23:13:29 19° E 23:15:52 10° NE
Cosmos 972 Rocket 4.1 23:10:02 10° NNW 23:15:15 80° ENE 23:18:41 25° SSE
Cosmos 44 3.6 23:14:09 30° SSE 23:15:42 41° ESE 23:19:55 10° NE
ERS-2 2.8 23:18:38 10° NNE 23:22:02 38° E 23:22:56 32° SE
Cosmos 2237 Rocket 4.3 23:18:10 10° NNW 23:22:45 24° NE 23:27:17 10° E
ALOS 2 2.7 23:21:37 31° S 23:23:37 64° WSW 23:28:01 10° NNW
Cosmos 1605 Rocket 4.4 23:17:54 10° N 23:24:15 59° ENE 23:28:27 22° SSE
CENTAUR R/B 3.8 23:22:31 17° SE 23:24:39 21° ESE 23:29:25 10° ENE
COSMOS 2428 3.4 23:24:03 10° NNW 23:29:39 50° NE 23:34:37 13° SE
NOSS 8 (A) 4.2 23:29:31 48° S 23:30:07 59° SE 23:33:01 10° NE
Cosmos 1777 Rocket 4.5 23:25:28 10° NNW 23:30:34 49° WSW 23:33:07 27° SSW
H-2A R/B 3.5 23:26:31 10° NNE 23:30:44 78° WNW 23:32:48 29° SSW
Cosmos 2058 3.0 23:29:58 31° SSW 23:31:56 74° WNW 23:36:07 10° N
SL-16 R/B 3.3 23:27:09 10° NW 23:32:04 31° WSW 23:34:48 21° SSW
Nadezhda 3 Rocket 4.2 23:28:02 21° SSW 23:32:15 68° WNW 23:38:26 10° N
Cosmos 2219 Rocket 2.4 23:26:55 10° NNW 23:32:37 70° ENE 23:36:41 20° SE
Cosmos 1953 Rocket 3.5 23:33:03 32° S 23:35:05 83° E 23:39:30 10° NNE
USA 267 3.2 23:31:20 10° ENE 23:37:55 79° SSE 23:44:29 10° SW
SJ 16-02 2.6 23:35:01 10° NW 23:38:50 29° W 23:40:31 22° SW
ATLAS 5 CENTAUR R/B 3.2 23:35:31 10° W 23:39:05 33° NNW 23:43:11 10° NE
Cosmos 2322 3.8 23:36:04 10° NNW 23:41:47 75° ENE 23:45:45 20° SE
SL-4 R/B 1.5 23:40:05 24° SW 23:42:02 67° SSE 23:45:44 10° ENE
Cosmos 1898 Rocket 4.1 23:38:03 10° NNW 23:43:07 51° ENE 23:47:02 16° SE
Cosmos 1825 Rocket 4.0 23:41:10 26° SW 23:43:26 55° WNW 23:47:44 10° N
Cosmos 1937 Rocket 4.5 23:43:14 10° NNW 23:48:16 43° ENE 23:52:46 12° SE
COSMOS 2455 4.1 23:44:34 10° NNW 23:50:16 41° NE 23:55:54 10° ESE
Cosmos 2221 2.5 23:45:58 10° NNW 23:50:21 78° W 23:52:14 33° S
PSLV R/B 3.9 23:48:40 10° NNE 23:53:25 67° ESE 23:55:36 31° S
